Tottori current weather conditions

sailwx.info

Wind from 200 at 9 knots

Air temperature 9.0° C
Visibility: greater than 5.4 NM
Dewpoint -3.0° C

Last reported at 2016-Feb-08 04:00 UTC.
Time now 2016-Feb-08 06:12 UTC

Location: N 35°32' E 134°10'.
View on Google Maps.

See reports from other nearby stations

  
Tides and Currents Weather Stations Pressure Air Temp Water Temp Dewpoint Dewpoint Depression Visibility Wind Speed Wind Dir Waves Ship Positions
date/time (UTC)wind fromknots sea level pressurealtimeterstation pressurevisibilityair tempwater tempwave heightnotes
2016-Feb-08 04:00 200 9 5.4 9.0
2016-Feb-08 03:00 5.4 7.0
2016-Feb-08 02:00 140 7 5.4 6.0
2016-Feb-08 01:00 150 7 5.4 4.0
2016-Feb-08 00:00 140 10 5.4 1.0
2016-Feb-07 23:00 140 11 5.4-0.0
2016-Feb-07 22:00 150 9 5.4-1.0
2016-Feb-07 21:30 130 10 5.4-2.0
2016-Feb-07 21:10 130 11 5.4-1.0
2016-Feb-07 12:00 140 8 5.4-0.0
2016-Feb-07 11:00 140 6 5.4-0.0
2016-Feb-07 10:00 150 6 5.4 1.0
2016-Feb-07 09:00 150 5 5.4 1.0
2016-Feb-07 08:00 180 7 5.4 2.0
2016-Feb-07 07:00 190 8 5.4 1.0
2016-Feb-07 06:00 220 3 5.4 3.0 Light snow showers.
2016-Feb-07 05:00 180 8 5.4 2.0 Light snow showers.
2016-Feb-07 04:00 190 8 5.4 4.0 Light snow showers.
2016-Feb-07 03:00 200 8 5.4 2.0 Light snow showers.
2016-Feb-07 02:00 060 3 5.4 4.0
2016-Feb-07 01:00 020 14 5.4 3.0 Light snow showers.
2016-Feb-07 00:00 5.4 2.0
2016-Feb-06 23:00 010 14 5.4 3.0
2016-Feb-06 22:00 020 15 5.4 3.0
2016-Feb-06 21:30 020 16 5.4 3.0
2016-Feb-06 21:10 020 18 5.4 3.0
2016-Feb-06 12:00 340 12 5.4 5.0
2016-Feb-06 11:00 330 7 4.3 3.0
2016-Feb-06 10:38 300 15 4.3 3.0 Light rain showers.
2016-Feb-06 10:30 270 13 4.3 3.0 Light snow showers.
2016-Feb-06 10:22 230 11 4.3 2.0
2016-Feb-06 10:04 230 12 4.3 2.0 Thunderstorm.
2016-Feb-06 10:00 230 12 4.3 2.0
2016-Feb-06 09:39 240 13 4.3 3.0 Light rain showers.
2016-Feb-06 09:30 280 12 4.3 3.0 Light thunderstorm with rain.
2016-Feb-06 09:00 4.3 2.0 Light snow showers.
2016-Feb-06 08:00 280 20 5.4 5.0 Light rain showers.
2016-Feb-06 07:00 310 17 5.4 5.0
2016-Feb-06 06:00 320 23 5.4 5.0 Light rain showers.